Munich, Germany

9:40 AM CEST on August 31, 2016 (GMT +0200)
Munich

Weather History for 10866 - January, 2014

Change the Weather History Date:

Saturday, January 11, 2014

  Actual Average Record
Temperature  
Mean Temperature 34 °F -  
Max Temperature 44 °F 36 °F - ()
Min Temperature 24 °F 23 °F - ()
Degree Days  
Heating Degree Days 31    
Moisture  
Dew Point 34 °F    
Average Humidity 97    
Maximum Humidity 100    
Minimum Humidity 87    
Precipitation  
Precipitation 0.00 in - - ()
Sea Level Pressure  
Sea Level Pressure 30.08 in    
Wind  
Wind Speed 3 mph ()    
Max Wind Speed 16 mph    
Max Gust Speed -    
Visibility 5.3 miles    
Events Fog , Rain    
T = Trace of Precipitation, MM = Missing Value Source: Averaged Metar Reports

Daily Weather History Graph

Daily Weather History Graph

Search for Another Location

Airport or City:

Trip Planner

Search our weather history database for the weather conditions in past years. The results will help you decide how hot, cold, wet, or windy it might be!

Date:

Astronomy

Jan. 11, 2014 Rise Set
Actual Time 8:01 AM CET 4:40 PM CET
Civil Twilight 7:25 AM CET 5:16 PM CET
Nautical Twilight 6:46 AM CET 5:55 PM CET
Astronomical Twilight 6:08 AM CET 6:32 PM CET
Moon 1:16 PM CET (1/11) 3:45 AM CET (1/11)
Length of Visible Light 9h 50m
Length of Day
8h 38m
Waxing Gibbous, 81% of the Moon is Illuminated
Jan 11
Waxing Gibbous
Jan 16
Full
Jan 24
Last Quarter
Jan 30
New
Feb 6
First Quarter

Hourly Weather History & Observations

Time (CET) Temp. Windchill Dew Point Humidity Pressure Visibility Wind Dir Wind Speed Gust Speed Precip Events Conditions
12:20 AM 28.4 °F 24.6 °F 28.4 °F 100% 30.09 in 6.2 mi East 3.5 mph - N/A Fog Shallow Fog
12:50 AM 28.4 °F - 28.4 °F 100% 30.09 in 6.2 mi Variable 1.2 mph - N/A Fog Shallow Fog
1:20 AM 28.4 °F - 28.4 °F 100% 30.09 in 6.2 mi NE 2.3 mph - N/A Fog Shallow Fog
1:50 AM 28.4 °F - 28.4 °F 100% 30.09 in 6.2 mi Variable 1.2 mph - N/A Fog Shallow Fog
2:20 AM 28.4 °F - 28.4 °F 100% 30.09 in 6.2 mi North 1.2 mph - N/A Fog Shallow Fog
2:50 AM 28.4 °F - 28.4 °F 100% 30.09 in 6.2 mi WNW 1.2 mph - N/A Fog Shallow Fog
3:20 AM 28.4 °F - 28.4 °F 100% 30.09 in 6.2 mi Calm Calm - N/A Fog Shallow Fog
3:50 AM 26.6 °F - 26.6 °F 100% 30.09 in 6.2 mi Calm Calm - N/A Fog Patches of Fog
4:20 AM 26.6 °F - 26.6 °F 100% 30.09 in 6.2 mi Variable 1.2 mph - N/A Fog Patches of Fog
4:50 AM 26.6 °F - 26.6 °F 100% 30.06 in 5.6 mi North 2.3 mph - N/A Fog Patches of Fog
5:20 AM 24.8 °F - 24.8 °F 100% 30.06 in 3.1 mi North 1.2 mph - N/A Fog Patches of Fog
5:50 AM 24.8 °F - 24.8 °F 100% 30.06 in 1.9 mi Calm Calm - N/A Fog Patches of Fog
6:20 AM 24.8 °F - 24.8 °F 100% 30.06 in 1.9 mi ESE 1.2 mph - N/A Fog Patches of Fog
6:50 AM 24.8 °F - 24.8 °F 100% 30.06 in 2.2 mi Variable 1.2 mph - N/A Fog Patches of Fog
7:20 AM 26.6 °F - 26.6 °F 100% 30.06 in 2.5 mi Variable 1.2 mph - N/A Fog Patches of Fog
7:50 AM 26.6 °F - 26.6 °F 100% 30.06 in 2.8 mi East 2.3 mph - N/A   Unknown
8:20 AM 26.6 °F - 26.6 °F 100% 30.06 in 3.7 mi Variable 2.3 mph - N/A   Unknown
8:50 AM 28.4 °F - 28.4 °F 100% 30.06 in 3.7 mi ENE 2.3 mph - N/A   Unknown
9:20 AM 30.2 °F - 30.2 °F 100% 30.06 in 3.7 mi NE 2.3 mph - N/A   Unknown
9:50 AM 30.2 °F 26.7 °F 30.2 °F 100% 30.06 in 5.0 mi ENE 3.5 mph - N/A   Unknown
10:20 AM 32.0 °F 28.7 °F 32.0 °F 100% 30.06 in 5.0 mi ENE 3.5 mph - N/A   Unknown
10:50 AM 33.8 °F 30.8 °F 33.8 °F 100% 30.06 in 5.0 mi East 3.5 mph - N/A   Unknown
11:20 AM 35.6 °F 32.8 °F 35.6 °F 100% 30.06 in 5.0 mi NE 3.5 mph - N/A   Unknown
11:50 AM 35.6 °F - 35.6 °F 100% 30.06 in 5.6 mi NNE 2.3 mph - N/A   Unknown
12:20 PM 37.4 °F 34.9 °F 37.4 °F 100% 30.04 in - ESE 3.5 mph - N/A   Clear
12:50 PM 37.4 °F - 35.6 °F 93% 30.04 in - Variable 2.3 mph - N/A   Clear
1:20 PM 39.2 °F 37.0 °F 37.4 °F 93% 30.04 in - SSW 3.5 mph - N/A   Clear
1:50 PM 41.0 °F 39.0 °F 37.4 °F 87% 30.04 in - NW 3.5 mph - N/A   Clear
2:20 PM 41.0 °F 38.0 °F 37.4 °F 87% 30.06 in 6.2 mi WSW 4.6 mph - N/A Rain Light Rain
2:50 PM 41.0 °F 38.0 °F 37.4 °F 87% 30.04 in 6.2 mi SW 4.6 mph - N/A Rain Rain
3:20 PM 41.0 °F 36.4 °F 39.2 °F 93% 30.06 in 6.2 mi WSW 6.9 mph - N/A Rain Rain
3:50 PM 39.2 °F 37.0 °F 39.2 °F 100% 30.06 in 6.2 mi SSW 3.5 mph - N/A Rain Light Rain
4:20 PM 41.0 °F - 39.2 °F 93% 30.06 in 6.2 mi West 2.3 mph - N/A Rain Light Rain
4:50 PM 41.0 °F - 39.2 °F 93% 30.06 in 6.2 mi Variable 2.3 mph - N/A Rain Light Rain
5:20 PM 41.0 °F 39.0 °F 41.0 °F 100% 30.06 in 6.2 mi SW 3.5 mph - N/A Rain Rain
5:50 PM 42.8 °F 39.3 °F 42.8 °F 100% 30.06 in 6.2 mi WSW 5.8 mph - N/A Rain Light Rain
6:20 PM 42.8 °F 40.1 °F 42.8 °F 100% 30.06 in 6.2 mi WSW 4.6 mph - N/A Rain Light Rain
6:50 PM 42.8 °F 40.1 °F 42.8 °F 100% 30.06 in 6.2 mi WSW 4.6 mph - N/A   Mostly Cloudy
7:20 PM 42.8 °F 38.6 °F 42.8 °F 100% 30.09 in 6.2 mi West 6.9 mph - N/A   Mostly Cloudy
7:50 PM 44.6 °F 40.2 °F 42.8 °F 93% 30.09 in 6.2 mi West 8.1 mph - N/A   Overcast
8:20 PM 44.6 °F 37.8 °F 42.8 °F 93% 30.12 in 6.2 mi West 15.0 mph - N/A   Overcast
8:50 PM 44.6 °F 37.4 °F 42.8 °F 93% 30.12 in 6.2 mi West 16.1 mph - N/A   Overcast
9:20 PM 44.6 °F 37.8 °F 42.8 °F 93% 30.15 in 6.2 mi West 15.0 mph - N/A   Overcast
9:50 PM 44.6 °F 37.4 °F 42.8 °F 93% 30.15 in 5.0 mi West 16.1 mph - N/A Rain Light Rain
10:20 PM 44.6 °F 37.8 °F 41.0 °F 87% 30.15 in 6.2 mi West 15.0 mph - N/A   Mostly Cloudy
10:50 PM 42.8 °F 35.8 °F 41.0 °F 93% 30.18 in 6.2 mi West 13.8 mph - N/A   Scattered Clouds
11:20 PM 42.8 °F 36.2 °F 41.0 °F 93% 30.18 in 6.2 mi West 12.7 mph - N/A   Mostly Cloudy
11:50 PM 42.8 °F 36.2 °F 39.2 °F 87% 30.18 in 6.2 mi West 12.7 mph - N/A   Mostly Cloudy